#timestamp,LO_Frequency,Hit,StdDev 
1678071615.7,286047006.2,N
1678071635.5,286047000.7,N
1678071655.4,286047004.6,N
1678071675.2,286047008.9,N
1678071695.0,286047004.3,N
1678071695.9,286047004.3,N
1678071715.8,286046996.7,N
1678071735.6,286046992.6,N
1678071755.4,286046987.3,N
1678071775.3,286046989.9,N
1678071795.1,286046987.1,N
1678071815.9,286046986.1,N
1678071835.7,286046984.6,N
1678071855.5,286046981.8,N
1678071875.7,286046978.3,N
1678071895.6,286046982.0,N
1678071915.4,286046979.7,N
1678071935.2,286046985.1,N
1678071955.1,286046982.6,N
1678071956.0,286046982.6,N
1678071975.8,286046980.5,N
1678071995.7,286046979.3,N
1678072015.5,286046976.3,N
1678072035.3,286046977.3,N
1678072055.2,286046986.5,N
1678072075.0,286046990.3,N
1678072075.9,286046990.3,N
1678072095.8,286046987.7,N
1678072115.6,286046981.0,N
1678072135.4,286046980.2,N
1678072155.3,286046978.8,N
1678072175.1,286046975.2,N
1678072195.8,286046980.9,N
1678072215.7,286046980.4,N
1678072235.5,286046988.3,N
1678072255.3,286046985.6,N
1678072275.2,286046989.7,N
1678072295.0,286046989.8,N
1678072295.9,286046989.8,N
1678072315.8,286046997.6,N
1678072335.6,286047003.2,N
1678072355.4,286047005.1,N
1678072375.3,286046998.2,N
1678072395.1,286047007.5,N
1678072415.9,286047010.1,N
1678072435.7,286047010.8,N
1678072455.5,286047007.7,N
1678072475.4,286047009.5,N
1678072495.2,286047017.2,N
1678072515.0,286047010.9,N
1678072515.9,286047010.9,N
1678072535.8,286047020.1,N
1678072555.6,286047019.2,N
1678072575.5,286047021.5,N
1678072595.3,286047022.8,N
1678072615.1,286047028.4,N
1678072635.9,286047016.2,N
1678072655.7,286047013.4,N
1678072675.5,286047014.6,N
1678072695.4,286047021.4,N
1678072715.2,286047026.9,N
1678072735.0,286047030.0,N
1678072736.0,286047030.0,N
1678072755.8,286047026.2,N
1678072775.6,286047032.4,N
1678072795.5,286047037.8,N
1678072815.3,286047037.4,N
1678072835.1,286047043.7,Y
1678072855.9,286047036.0,P
1678072875.7,286047033.4,P
1678072895.6,286047041.4,P
1678072915.4,286047042.2,Y
1678072935.2,286047012.6,P
1678072955.1,286047010.7,N
1678072956.0,286047010.7,N
1678072975.8,286047008.7,N
1678072995.6,286047006.0,N
1678073015.5,286047004.3,N
1678073035.3,286047000.9,N
1678073055.2,286047000.2,N
1678073075.9,286046992.1,N
1678073095.7,286046995.3,N
1678073115.6,286046994.0,N
1678073135.4,286046997.0,N
1678073155.2,286047005.1,N
1678073175.1,286047000.6,N
1678073176.0,286047000.6,N
1678073195.8,286046993.9,N
1678073215.7,286046997.5,N
1678073235.5,286046998.8,N
1678073255.3,286046992.8,N
1678073275.2,286046989.1,N
1678073295.0,286046988.7,N
1678073295.9,286046988.7,N
1678073315.8,286046995.5,N
1678073335.6,286046991.4,N
1678073355.4,286046987.7,N
1678073375.3,286046990.0,N
1678073395.1,286046986.4,N
1678073415.8,286046979.9,N
1678073435.7,286046984.9,N
1678073455.5,286046979.0,N
1678073475.4,286046975.9,N
1678073495.2,286046982.3,N
1678073515.1,286046990.4,N
1678073516.0,286046990.4,N
1678073535.8,286046989.3,N
1678073555.6,286046994.1,N
1678073575.5,286046995.2,N
1678073595.3,286046991.4,N
1678073615.1,286046987.7,N
1678073635.9,286046989.6,N
1678073655.7,286046995.3,N
1678073675.6,286046995.3,N
1678073695.4,286047003.3,N
1678073715.2,286047003.1,N
1678073735.1,286046999.6,N
1678073736.0,286046999.6,N
1678073755.8,286046999.5,N
1678073775.6,286046985.6,N
1678073795.5,286046984.3,N
1678073815.3,286046980.7,N
1678073835.2,286046983.4,N
1678073855.9,286046987.4,N
1678073875.7,286046982.2,N
1678073895.6,286046988.7,N
1678073915.4,286046996.1,N
1678073935.2,286046997.0,N
1678073955.1,286047003.9,N
1678073956.0,286047003.9,N
1678073975.8,286047002.2,N
1678073995.7,286046999.5,N
1678074015.5,286046994.5,N
1678074035.3,286046989.1,N
1678074055.2,286046984.1,N
1678074075.0,286046986.5,N
1678074075.9,286046986.5,N
1678074095.8,286046986.0,N
1678074115.6,286046985.7,N
1678074135.4,286046986.2,N
1678074155.3,286046992.5,N
1678074175.1,286046997.7,N
1678074195.8,286046988.6,N
1678074215.7,286046982.6,N
1678074235.5,286046978.0,N
1678074255.4,286046986.3,N
1678074275.2,286046988.9,N
1678074295.0,286046987.0,N
1678074295.9,286046987.0,N
1678074315.8,286046983.4,N
1678074335.6,286046980.2,N
1678074355.4,286046980.0,N
1678074375.3,286046985.7,N
1678074395.1,286046980.9,N
1678074415.9,286046975.1,Y
1678074435.7,286046979.1,P
1678074455.5,286046984.0,P
1678074475.4,286046992.1,N
1678074495.2,286046990.0,N
1678074515.0,286046984.3,Y
1678074515.9,286046984.3,P
1678074535.8,286047004.9,P
1678074555.6,286047002.3,N
1678074575.5,286047003.5,N
1678074595.3,286047007.0,N
1678074615.1,286046995.0,N
1678074635.9,286046991.7,N
1678074655.7,286046994.2,N
1678074675.5,286046987.1,N
1678074695.4,286046991.5,N
1678074715.2,286046989.6,N
1678074735.1,286046988.9,N
1678074736.0,286046988.9,N
1678074755.8,286046982.5,N
1678074775.6,286046986.4,N
1678074795.5,286046982.6,N
1678074815.3,286046977.8,N
1678074835.2,286046972.0,Y
1678074855.9,286046981.5,P
1678074875.7,286046978.8,P
1678074895.6,286046980.5,P
1678074915.4,286046981.0,Y
1678074935.2,286047003.1,P
1678074955.1,286047007.1,N
1678074956.0,286047007.1,N
1678074975.8,286047003.2,N
1678074995.7,286047002.0,N
1678075015.5,286047003.0,N
1678075035.3,286047002.7,N
1678075055.2,286046999.9,N
1678075075.0,286047001.3,N
1678075075.9,286047001.3,N
1678075095.7,286046995.2,N
1678075115.6,286046993.5,N
1678075135.4,286047008.3,N
1678075155.3,286047015.0,N
1678075175.1,286047011.8,N
1678075176.0,286047011.8,N
1678075195.8,286047010.9,N
